Torna al catalogo

CZ-11 DEB

AttivoVLEO
NORAD 66377·DEBRIS·🇨🇳 China

Lanciato Nov 8, 2025 da Yellow Sea Launch Area

Loading…

Prossimi Passaggi (prossime 24 ore)

TLE

In scadenzaSource: Space-Track

Epoca: Sep 13, 2026, 11:58 UTC

1 66377U 25255B   26256.49867866  .00262224  00000-0  90318-3 0  9995
2 66377  52.9814 276.7213 0003549  42.0713 318.0583 15.88358635 48110

Traccia CZ-11 DEB in tempo reale con AllMySat

Download on the App Store